[[{"header":{"parameterUnit":"m.s-1","parameterCategory":1,"la1":30.2991,"la2":30.254,"lo1":-89.0895,"lo2":-89.0444,"dy":0.0017,"dx":0.0017,"nx":28,"ny":28,"refTime":"2023-10-17T21:00:00:Z","depth":0,"parameterNumber":2,"parameterNumberName":"U-component_of_WINDS"},"data":[0,0,0,0,0,0,0,0,0,0,0,0,0,0,0,0,0,0,0,0,0,0,0,0,0,0,0,0,0,0,0,0,0,0,0,0,0,0,0,0,0,0,0,0,0,0,0,0,0,0,0,0,0,0,0,0,0,0,-0.2735,-0.2736,0,-0.2844,-0.2845,-0.2846,-0.2964,-0.2965,-0.2967,-0.2969,-0.3073,-0.3074,-0.3075,0,0,0,0,0,0,0,0,0,0,0,0,0,-0.2619,-0.2621,-0.2735,-0.2736,-0.2737,-0.2843,-0.2845,-0.2846,-0.2963,-0.2965,-0.2968,-0.2969,-0.3073,-0.3074,-0.3076,0,0,0,0,0,0,0,0,0,0,0,0,0,-0.2693,-0.2621,-0.2734,-0.2809,-0.2816,-0.2843,-0.2845,-0.2847,-0.2963,-0.2966,-0.2968,-0.297,-0.3072,-0.3074,-0.3076,-0.3036,0,0,-0.3081,-0.3082,0,0,0,0,0,0,0,0,-0.2688,-0.2697,-0.2796,-0.2804,-0.2812,-0.2893,-0.2843,-0.291,-0.2962,-0.2907,-0.2969,-0.2972,-0.3011,-0.3018,-0.3032,-0.3041,-0.3045,-0.3081,-0.3083,-0.3083,-0.3084,0,0,0,0,0,0,0,-0.2683,-0.2693,-0.2778,-0.2798,-0.2807,-0.2834,-0.2847,-0.2856,-0.2943,-0.2912,-0.2921,-0.2933,-0.3015,-0.303,-0.3036,-0.3047,-0.3081,-0.3083,-0.3084,-0.3085,-0.3024,-0.3022,0,0,0,0,0,0,-0.2668,-0.2688,-0.2774,-0.2781,-0.2756,-0.2834,-0.2849,-0.2864,-0.2943,-0.2958,-0.293,-0.2938,-0.3026,-0.3033,-0.304,-0.2996,-0.3083,-0.3085,-0.3086,-0.3027,-0.3023,-0.3021,0,0,0,0,0,0,-0.2665,-0.2674,-0.277,-0.2737,-0.2751,-0.2833,-0.285,-0.2865,-0.288,-0.2957,-0.2972,-0.293,-0.3028,-0.3037,-0.3036,-0.3001,-0.3086,-0.3087,-0.303,-0.3026,-0.3022,-0.2909,0,0,0,0,0,0,-0.2661,-0.2673,-0.2661,-0.2736,-0.2752,-0.2766,-0.2848,-0.2865,-0.2884,-0.2894,-0.2961,-0.2974,-0.3031,-0.3032,-0.3037,-0.3005,-0.3089,-0.3033,-0.3028,-0.3023,-0.2916,-0.2902,-0.2889,0,0,0,0,0,-0.2657,-0.2624,-0.2659,-0.2669,-0.2739,-0.2764,-0.2773,-0.2841,-0.2881,-0.2867,-0.2916,-0.2972,-0.3004,-0.3031,-0.3038,-0.3006,-0.3036,-0.303,-0.3024,-0.2922,-0.2904,-0.2889,0,0,0,0,0,0,-0.2541,-0.2635,-0.2676,-0.2667,-0.2706,-0.2784,-0.277,-0.2821,-0.2848,-0.2857,-0.2938,-0.2952,-0.294,-0.2973,-0.3001,-0.2969,-0.3028,-0.3023,-0.2948,-0.2932,-0.2919,-0.291,-0.309,0,0,0,0,0,-0.2514,-0.2529,-0.261,-0.2594,-0.2612,-0.2687,-0.27,-0.2749,-0.2793,-0.281,-0.2859,-0.2897,-0.2915,-0.2926,-0.2947,-0.2922,-0.2936,-0.2902,-0.2889,-0.2877,-0.2871,-0.2857,-0.2842,-0.3001,-0.3001,-0.3001,0,0,-0.2459,-0.2513,-0.2517,-0.2572,-0.2609,-0.2619,-0.27,-0.2709,-0.2716,-0.281,-0.2812,-0.2849,-0.2896,-0.2881,-0.2878,-0.2909,-0.2831,-0.287,-0.286,-0.2861,-0.2849,-0.2834,-0.2821,-0.2997,-0.2997,-0.2998,0,0,-0.2365,-0.2408,-0.2398,-0.2433,-0.2488,-0.2538,-0.2535,-0.2604,-0.2633,-0.2636,-0.2706,-0.2715,-0.2746,-0.2776,-0.2795,-0.2709,-0.276,-0.2713,-0.2642,-0.2627,-0.2615,-0.2604,-0.257,-0.2557,-0.2708,-0.2707,-0.2707,0,-0.2289,-0.231,-0.2386,-0.2389,-0.241,-0.2497,-0.2485,-0.2515,-0.2573,-0.2583,-0.2618,-0.2657,-0.2696,-0.2688,-0.2666,-0.268,-0.2677,-0.2706,-0.2611,-0.2601,-0.2592,-0.256,-0.2548,-0.2701,-0.2702,-0.2703,-0.2703,0,-0.2213,-0.2226,-0.2211,-0.2266,-0.2285,-0.2281,-0.2353,-0.2362,-0.2408,-0.2453,-0.2453,-0.2502,-0.2533,-0.2535,-0.2581,-0.2533,-0.255,-0.2596,-0.2657,-0.2569,-0.2541,-0.253,-0.2692,-0.2695,-0.2696,-0.2698,0,0,-0.2048,-0.2145,-0.2138,-0.2162,-0.2229,-0.2239,-0.2237,-0.227,-0.2274,-0.2311,-0.2309,-0.2332,-0.2375,-0.2396,-0.2445,-0.2432,-0.2357,-0.248,-0.2482,-0.2453,-0.2303,-0.2266,-0.2251,-0.2391,-0.2389,-0.2388,-0.2298,0,-0.1963,-0.1968,-0.2035,-0.2019,-0.203,-0.2112,-0.211,-0.2148,-0.2189,-0.2202,-0.2247,-0.2261,-0.2318,-0.2331,-0.2322,-0.2368,-0.2327,-0.2375,-0.2387,-0.2386,-0.2371,-0.2237,-0.2199,-0.2112,-0.2288,-0.2286,-0.2285,0,-0.1866,-0.1897,-0.1883,-0.1947,-0.1954,-0.1951,-0.1985,-0.1997,-0.2041,-0.2071,-0.2094,-0.215,-0.2149,-0.2206,-0.2204,-0.2235,-0.2243,-0.2266,-0.2264,-0.2266,-0.2329,-0.2233,-0.2086,-0.2072,-0.2269,-0.227,-0.2271,0,-0.1744,-0.1783,-0.1779,-0.1798,-0.1873,-0.1868,-0.1899,-0.1945,-0.1959,-0.1988,-0.1997,-0.2024,-0.2038,-0.2056,-0.2116,-0.2153,-0.2105,-0.2169,-0.2128,-0.2126,-0.2113,-0.2113,-0.1963,-0.2122,-0.2122,-0.2122,-0.2122,0,-0.1641,-0.1628,-0.1725,-0.1722,-0.1708,-0.1784,-0.1768,-0.1806,-0.1846,-0.1849,-0.1921,-0.1922,-0.2002,-0.2011,-0.2057,-0.2046,-0.2053,-0.2075,-0.2087,-0.2067,-0.2064,-0.2073,-0.2079,-0.2119,-0.2119,-0.212,-0.2121,0,-0.1503,-0.1567,-0.1568,-0.1638,-0.1656,-0.1642,-0.1702,-0.17,-0.1745,-0.1748,-0.1753,-0.1823,-0.1837,-0.1899,-0.1927,-0.1958,-0.193,-0.1956,-0.1916,-0.1924,-0.1878,-0.188,-0.1727,-0.1709,-0.1881,-0.1879,-0.1877,0,-0.1432,-0.1424,-0.1494,-0.1502,-0.153,-0.1543,-0.1558,-0.163,-0.1642,-0.169,-0.1681,-0.1701,-0.1721,-0.1739,-0.179,-0.1811,-0.1837,-0.1781,-0.184,-0.1819,-0.1832,-0.1831,-0.1829,-0.1768,-0.1766,-0.1764,-0.1762,0,-0.1299,-0.133,-0.1351,-0.1381,-0.1397,-0.1424,-0.1455,-0.1457,-0.1537,-0.1546,-0.1562,-0.1577,-0.1606,-0.1624,-0.1653,-0.1681,-0.1733,-0.1744,-0.1735,-0.1713,-0.169,-0.1699,-0.1879,-0.1746,-0.1748,-0.1749,-0.175,-0.1751,-0.1191,-0.1186,-0.1234,-0.1253,-0.1284,-0.131,-0.1312,-0.1357,-0.1372,-0.1403,-0.1444,-0.1453,-0.1494,-0.1539,-0.1563,-0.1569,-0.1599,-0.1587,-0.1583,-0.1578,-0.1567,-0.169,-0.1575,-0.1575,-0.1576,-0.1576,-0.1577,0,-0.1059,-0.1093,-0.111,-0.1151,-0.1165,-0.1215,-0.1251,-0.1258,-0.1267,-0.1301,-0.1319,-0.1335,-0.1352,-0.1404,-0.1426,-0.142,-0.1444,-0.1423,-0.1423,-0.1428,-0.1541,-0.1545,-0.1403,-0.1403,-0.1403,-0.1403,-0.1403,-0.1403,-0.0992,-0.0986,-0.1023,-0.1032,-0.1066,-0.1077,-0.1093,-0.1116,-0.1144,-0.116,-0.1174,-0.1209,-0.1249,-0.1274,-0.129,-0.1305,-0.1308,-0.1278,-0.13,-0.1404,-0.142,-0.1436,-0.1441,-0.1279,-0.1278,-0.1186,-0.1185,-0.1184]},{"header":{"parameterUnit":"m.s-1","parameterCategory":1,"la1":30.2991,"la2":30.254,"lo1":-89.0895,"lo2":-89.0444,"dy":0.0017,"dx":0.0017,"nx":28,"ny":28,"refTime":"2023-10-17T21:00:00:Z","depth":0,"parameterNumber":3,"parameterNumberName":"V-component_of_WINDS"},"data":[0,0,0,0,0,0,0,0,0,0,0,0,0,0,0,0,0,0,0,0,0,0,0,0,0,0,0,0,0,0,0,0,0,0,0,0,0,0,0,0,0,0,0,0,0,0,0,0,0,0,0,0,0,0,0,0,0,0,-0.5609,-0.5607,0,-0.5489,-0.5487,-0.5486,-0.5425,-0.5425,-0.5425,-0.5425,-0.53,-0.5297,-0.5293,0,0,0,0,0,0,0,0,0,0,0,0,0,-0.5781,-0.5778,-0.5609,-0.5607,-0.5606,-0.5489,-0.5487,-0.5486,-0.5425,-0.5425,-0.5425,-0.5425,-0.5301,-0.5297,-0.5293,0,0,0,0,0,0,0,0,0,0,0,0,0,-0.5688,-0.5777,-0.5609,-0.5562,-0.5556,-0.5489,-0.5487,-0.5485,-0.5425,-0.5425,-0.5425,-0.5425,-0.5302,-0.5297,-0.5292,-0.5263,0,0,-0.5277,-0.5275,0,0,0,0,0,0,0,0,-0.5694,-0.5682,-0.557,-0.5565,-0.5559,-0.5472,-0.5502,-0.5411,-0.5425,-0.5475,-0.5425,-0.5425,-0.5357,-0.5348,-0.5325,-0.5257,-0.5251,-0.5277,-0.5274,-0.5272,-0.527,0,0,0,0,0,0,0,-0.57,-0.5687,-0.5561,-0.5569,-0.5562,-0.5545,-0.5532,-0.5484,-0.5418,-0.5471,-0.5466,-0.5453,-0.5354,-0.533,-0.5322,-0.525,-0.5277,-0.5273,-0.5269,-0.5268,-0.5149,-0.5148,0,0,0,0,0,0,-0.5715,-0.5693,-0.5565,-0.5558,-0.5627,-0.5542,-0.5527,-0.55,-0.5418,-0.5406,-0.5453,-0.545,-0.5338,-0.5328,-0.5317,-0.5275,-0.5272,-0.5267,-0.5264,-0.5149,-0.5149,-0.5148,0,0,0,0,0,0,-0.5719,-0.5704,-0.557,-0.5624,-0.5605,-0.5539,-0.5509,-0.5498,-0.5474,-0.5405,-0.5392,-0.5441,-0.5338,-0.5324,-0.5276,-0.527,-0.5265,-0.526,-0.5149,-0.5149,-0.5148,-0.5193,0,0,0,0,0,0,-0.5724,-0.5706,-0.5695,-0.5624,-0.5603,-0.5533,-0.5509,-0.5495,-0.5466,-0.5461,-0.539,-0.5378,-0.5337,-0.5284,-0.5271,-0.5263,-0.5256,-0.5149,-0.5149,-0.5149,-0.5191,-0.5194,-0.5196,0,0,0,0,0,-0.573,-0.5712,-0.5695,-0.568,-0.5588,-0.5532,-0.552,-0.5474,-0.5465,-0.5453,-0.5408,-0.5381,-0.5273,-0.528,-0.5265,-0.5255,-0.5149,-0.5149,-0.5149,-0.519,-0.5193,-0.5196,0,0,0,0,0,0,-0.5783,-0.5702,-0.5682,-0.564,-0.5594,-0.5522,-0.5505,-0.5479,-0.5433,-0.543,-0.5373,-0.5358,-0.5315,-0.528,-0.5289,-0.5221,-0.5208,-0.5205,-0.5245,-0.5248,-0.525,-0.5259,-0.5252,0,0,0,0,0,-0.579,-0.5753,-0.5683,-0.5653,-0.5631,-0.5572,-0.5546,-0.5514,-0.5464,-0.5443,-0.5395,-0.5346,-0.5301,-0.5272,-0.5227,-0.5186,-0.5169,-0.5172,-0.5174,-0.5177,-0.5174,-0.5148,-0.5148,-0.5147,-0.5147,-0.5147,0,0,-0.5803,-0.5754,-0.5734,-0.5662,-0.5623,-0.5584,-0.5556,-0.5517,-0.5487,-0.5437,-0.5389,-0.5352,-0.5293,-0.5248,-0.5226,-0.5218,-0.5171,-0.5176,-0.5179,-0.5174,-0.5148,-0.5148,-0.5148,-0.5147,-0.5147,-0.5147,0,0,-0.5808,-0.5768,-0.5738,-0.5699,-0.5639,-0.56,-0.5593,-0.5525,-0.5499,-0.545,-0.5411,-0.5374,-0.5298,-0.5257,-0.5227,-0.5215,-0.5187,-0.5202,-0.5213,-0.5189,-0.5189,-0.5188,-0.5183,-0.5182,-0.5199,-0.5199,-0.52,0,-0.5832,-0.5773,-0.5725,-0.5688,-0.5656,-0.561,-0.5578,-0.5542,-0.547,-0.5449,-0.5441,-0.5344,-0.5301,-0.5245,-0.5242,-0.522,-0.5208,-0.5209,-0.5193,-0.5192,-0.5191,-0.5185,-0.5183,-0.5202,-0.5201,-0.5201,-0.5201,0,-0.5805,-0.5765,-0.5747,-0.568,-0.5646,-0.5612,-0.5557,-0.5529,-0.55,-0.5461,-0.5411,-0.5358,-0.5301,-0.5285,-0.5256,-0.5225,-0.5221,-0.5204,-0.519,-0.5194,-0.5187,-0.5185,-0.5205,-0.5204,-0.5203,-0.5203,0,0,-0.5839,-0.5745,-0.574,-0.5708,-0.5638,-0.5605,-0.5568,-0.5512,-0.5489,-0.5441,-0.5407,-0.5343,-0.5326,-0.5291,-0.5257,-0.5236,-0.5228,-0.522,-0.5218,-0.5222,-0.5188,-0.5201,-0.5199,-0.5209,-0.5208,-0.5208,-0.5192,0,-0.5833,-0.5765,-0.572,-0.5669,-0.563,-0.5585,-0.5552,-0.5505,-0.5468,-0.5428,-0.5387,-0.5342,-0.5324,-0.5302,-0.5279,-0.5234,-0.522,-0.5234,-0.5175,-0.5174,-0.5191,-0.5195,-0.5209,-0.5197,-0.5189,-0.5189,-0.5189,0,-0.5817,-0.577,-0.5716,-0.5649,-0.5631,-0.5603,-0.5547,-0.5511,-0.5456,-0.543,-0.5391,-0.5356,-0.5313,-0.5303,-0.5242,-0.5253,-0.5226,-0.52,-0.5199,-0.519,-0.5181,-0.5186,-0.5192,-0.519,-0.5184,-0.5185,-0.5185,0,-0.5845,-0.5769,-0.5727,-0.5701,-0.5623,-0.5603,-0.5569,-0.5515,-0.5484,-0.5435,-0.5414,-0.5361,-0.5331,-0.529,-0.5241,-0.5239,-0.5185,-0.5171,-0.5161,-0.5162,-0.5151,-0.5152,-0.5151,-0.5135,-0.5136,-0.5136,-0.5136,0,-0.5843,-0.5811,-0.5738,-0.5712,-0.5674,-0.5622,-0.5586,-0.5548,-0.5499,-0.5463,-0.5421,-0.5388,-0.5326,-0.5285,-0.5247,-0.5201,-0.5188,-0.5165,-0.5155,-0.5168,-0.5171,-0.5149,-0.5149,-0.5135,-0.5135,-0.5135,-0.5135,0,-0.5868,-0.5819,-0.5769,-0.5699,-0.568,-0.5655,-0.5594,-0.5566,-0.5527,-0.5482,-0.5468,-0.5405,-0.5355,-0.5302,-0.5234,-0.5208,-0.5163,-0.515,-0.5182,-0.5176,-0.5168,-0.5169,-0.5152,-0.5146,-0.5136,-0.5137,-0.5137,0,-0.5869,-0.5843,-0.5771,-0.5744,-0.5712,-0.567,-0.5638,-0.5585,-0.5553,-0.5488,-0.5468,-0.5414,-0.5368,-0.5289,-0.5237,-0.5184,-0.5168,-0.5166,-0.516,-0.5174,-0.5166,-0.5168,-0.5165,-0.5168,-0.5168,-0.5169,-0.5169,0,-0.5875,-0.5852,-0.5809,-0.5756,-0.572,-0.5676,-0.563,-0.561,-0.5548,-0.5514,-0.5463,-0.5427,-0.5357,-0.5304,-0.5245,-0.5208,-0.5177,-0.5171,-0.5166,-0.5178,-0.5198,-0.5186,-0.5186,-0.5172,-0.5171,-0.5171,-0.5171,-0.5171,-0.5887,-0.5862,-0.5807,-0.5759,-0.5719,-0.5677,-0.5647,-0.5604,-0.556,-0.5499,-0.5471,-0.5418,-0.5362,-0.5279,-0.5244,-0.5201,-0.5192,-0.5185,-0.5182,-0.5181,-0.5184,-0.5205,-0.519,-0.519,-0.519,-0.519,-0.519,0,-0.589,-0.5852,-0.5809,-0.5747,-0.5709,-0.5685,-0.5633,-0.5602,-0.5557,-0.5508,-0.5464,-0.5404,-0.5352,-0.5295,-0.5239,-0.5216,-0.52,-0.5203,-0.5204,-0.5195,-0.5195,-0.5205,-0.5216,-0.5216,-0.5216,-0.5216,-0.5216,-0.5216,-0.5887,-0.5843,-0.5813,-0.5747,-0.5709,-0.5658,-0.563,-0.5591,-0.5551,-0.5486,-0.5443,-0.5407,-0.5354,-0.5294,-0.5244,-0.5229,-0.521,-0.5216,-0.5197,-0.5198,-0.5196,-0.5194,-0.5202,-0.5213,-0.5213,-0.52,-0.52,-0.52]}]]